Location: Berlin
(38.3226°N, 75.2177°W)
Time: 23:18:33
(UTC+00:00)

SAR-Lupe-1 - Pass Details

Date: 26 October 2020
Orbit: 480 x 485 km, 98.2° (Epoch: 22 November)

Event Time Altitude Azimuth Distance (km) Brightness Sun altitude
Rises 10:20:46 0° 177° (S) 2,527 7.8 -12.5°
Reaches altitude 10° 10:22:51 10° 183° (S) 1,652 6.8 -12.1°
Maximum altitude 10:26:18 50° 259° (W) 623 4.2 -11.4°
Drops below altitude 10° 10:29:47 10° 336° (NNW) 1,664 6.5 -10.7°
Sets 10:31:54 0° 342° (NNW) 2,548 7.5 -10.3°
